EW3511 Weather Reports


time (UTC)temp
C
wind
direction
speed
KPH
gust
KPH
rain 1hr
cm
rain 24hr
cm
rain mn
cm
humidity
%
barometer
mb
20260503203052 17 0.0 0.0 0.00 0.00 0.00 54 1011.8
20260503202053 17 0.0 0.0 0.00 0.00 0.00 53 1011.9
20260503201112 17 0.0 1.6 0.00 0.00 0.00 53 1011.8
20260503200113 17 155 0.0 1.6 0.00 0.00 0.00 54 1011.7
20260503195053 17 0.0 0.0 0.00 0.00 0.00 53 1011.7
20260503194054 17 0.0 0.0 0.00 0.00 0.00 52 1011.7
20260503193054 18 0.0 0.0 0.00 0.00 0.00 50 1011.6
20260503192114 18 93 0.0 1.6 0.00 0.00 0.00 50 1011.6
20260503191055 19 0.0 1.6 0.00 0.00 0.00 49 1011.5
20260503190056 19 142 1.6 3.2 0.00 0.00 0.00 49 1011.4
20260503185057 19 90 1.6 3.2 0.00 0.00 0.00 50 1011.4
20260503184056 20 83 0.0 1.6 0.00 0.00 0.00 49 1011.1
20260503183057 20 87 1.6 3.2 0.00 0.00 0.00 49 1011.0
20260503182057 20 0.0 0.0 0.00 0.00 0.00 50 1010.9
20260503181118 21 90 0.0 3.2 0.00 0.00 0.00 45 1010.8
20260503180058 21 67 1.6 4.8 0.00 0.00 0.00 44 1010.6
20260503175118 21 62 1.6 4.8 0.00 0.00 0.00 46 1010.6
20260503174059 22 80 0.0 3.2 0.00 0.00 0.00 45 1010.5
20260503173119 22 82 1.6 3.2 0.00 0.00 0.00 46 1010.5
20260503172059 23 50 1.6 11.3 0.00 0.00 0.00 42 1010.6
20260503171101 24 4 3.2 9.7 0.00 0.00 0.00 39 1010.5
20260503160123 26 68 1.6 3.2 0.00 0.00 0.00 36 1010.2
20260503131058 26 0 3.2 11.3 0.00 0.00 0.00 31 1011.6
20260503090108 22 139 0.0 1.6 0.00 0.00 0.00 45 1014.8
20260503081050 20 116 3.2 4.8 0.00 0.00 0.00 48 1015.2
20260503080110 20 93 1.6 8.0 0.00 0.00 0.00 47 1015.2
20260503072052 18 157 1.6 3.2 0.00 0.00 0.00 50 1015.3
20260503071053 18 121 1.6 4.8 0.00 0.00 0.00 50 1015.2
20260503060116 15 0.0 0.0 0.00 0.00 0.00 62 1015.3
20260503055056 15 0.0 0.0 0.00 0.00 0.00 60 1015.3
20260503054057 12 0.0 0.0 0.00 0.00 0.00 68 1015.2
20260503053058 10 0.0 0.0 0.00 0.00 0.00 74 1015.2
20260503052117 10 93 0.0 1.6 0.00 0.00 0.00 75 1015.4
20260503051118 8 0.0 0.0 0.00 0.00 0.00 78 1015.3
20260503050138 10 0.0 0.0 0.00 0.00 0.00 76 1015.4
20260503045058 8 0.0 0.0 0.00 0.00 0.00 79 1015.4
20260503044059 7 122 0.0 1.6 0.00 0.00 0.00 82 1015.3
20260503043101 6 0.0 0.0 0.00 0.00 0.00 87 1015.2
20260503042032 6 0.0 0.0 0.00 0.00 0.00 89 1015.2
20260503041032 5 0.0 0.0 0.00 0.00 0.00 89 1015.2
20260503040036 5 0.0 0.0 0.00 0.00 0.00 89 1015.1
20260503035033 5 0.0 0.0 0.00 0.00 0.00 89 1015.1
20260503034054 5 0.0 0.0 0.00 0.00 0.00 89 1015.2
20260503033034 5 0.0 0.0 0.00 0.00 0.00 88 1015.1
20260503032035 5 0.0 0.0 0.00 0.00 0.00 89 1015.2
20260503031035 5 0.0 0.0 0.00 0.00 0.00 88 1015.1
20260503030035 6 93 0.0 1.6 0.00 0.00 0.00 87 1015.1
20260503025035 6 0.0 0.0 0.00 0.00 0.00 87 1015.0
20260503024056 6 0.0 0.0 0.00 0.00 0.00 87 1015.0
20260503023036 6 0.0 0.0 0.00 0.00 0.00 85 1015.1
20260503022037 6 72 0.0 1.6 0.00 0.00 0.00 87 1015.1
20260503021037 6 87 0.0 1.6 0.00 0.00 0.00 85 1015.1
20260503020118 6 0.0 0.0 0.00 0.00 0.00 85 1015.2
20260503015038 6 0.0 0.0 0.00 0.00 0.00 84 1015.2
20260503014039 6 87 0.0 1.6 0.00 0.00 0.00 84 1015.3
20260503013039 6 0.0 0.0 0.00 0.00 0.00 83 1015.2
20260503012039 6 0.0 0.0 0.00 0.00 0.00 83 1015.2
20260503011039 7 0.0 0.0 0.00 0.00 0.00 83 1015.4
20260503010100 7 0.0 0.0 0.00 0.00 0.00 81 1015.4
20260503005041 7 85 0.0 1.6 0.00 0.00 0.00 81 1015.5
20260503004041 7 0.0 0.0 0.00 0.00 0.00 82 1015.5
20260503003042 7 0.0 0.0 0.00 0.00 0.00 80 1015.4
20260503002042 8 0.0 0.0 0.00 0.00 0.00 79 1015.6
20260503001043 7 0.0 0.0 0.00 0.00 0.00 79 1015.7
20260503000043 8 0.0 0.0 0.00 0.00 0.00 78 1015.8
20260502235103 8 0.0 0.0 0.00 0.00 0.00 78 1015.8
20260502234104 8 0.0 0.0 0.00 0.00 0.00 78 1015.9
20260502233044 8 0.0 0.0 0.00 0.00 0.00 78 1016.1
20260502232044 8 0.0 0.0 0.00 0.00 0.00 77 1016.2
20260502231044 8 0.0 0.0 0.00 0.00 0.00 78 1016.2
20260502230045 8 0.0 0.0 0.00 0.00 0.00 77 1016.2
20260502225047 9 0.0 0.0 0.00 0.00 0.00 75 1016.2
20260502224046 8 0.0 0.0 0.00 0.00 0.00 75 1016.3
20260502223046 9 0.0 0.0 0.00 0.00 0.00 73 1016.4
20260502222048 10 0.0 1.6 0.00 0.00 0.00 71 1016.5
20260502221047 10 0.0 0.0 0.00 0.00 0.00 70 1016.5
20260502220049 10 0.0 0.0 0.00 0.00 0.00 70 1016.5
20260502215109 11 0.0 0.0 0.00 0.00 0.00 69 1016.5
20260502214048 11 0.0 0.0 0.00 0.00 0.00 69 1016.6
20260502213049 11 0.0 0.0 0.00 0.00 0.00 70 1016.5
20260502212049 11 0.0 0.0 0.00 0.00 0.00 67 1016.5
20260502211050 12 0.0 0.0 0.00 0.00 0.00 63 1016.6
20260502210051 13 0.0 0.0 0.00 0.00 0.00 57 1016.7
20260502205051 15 0.0 0.0 0.00 0.00 0.00 52 1016.7
20260502204111 15 93 0.0 1.6 0.00 0.00 0.00 51 1016.8